Regional Weather Roundup
Issued by NWS Jackson, KY

Home | Current Version | Previous Version | Text Only | Print | Product List | Glossary On
Versions: 1 2 3 4 5 6 7 8 9 10 11 12 13 14 15 16 17 18 19 20 21 22 23 24 25 26 27 28 29 30 31 32 33 34 35 36 37 38 39 40 41 42 43 44 45 46 47 48 49 50
000
ASUS43 KJKL 210910
RWRJKL

EAST KENTUCKY HOURLY WEATHER ROUNDUP
NATIONAL WEATHER SERVICE JACKSON KY
400 AM EST TUE FEB 21 2017

NOTE: "FAIR" INDICATES FEW OR NO CLOUDS BELOW 12,000 FEET WITH
NO SIGNIFICANT WEATHER AND/OR OBSTRUCTIONS TO VISIBILITY.

* THESE REPORTS ARE NOT UNDER NWS QUALITY CONTROL AND MAY NOT
  REPORT WEATHER SUCH AS PRECIPITATION AND FOG.

KYZ079-080-083-085-087-088-110-112-115-119-120-211000
...EASTERN KENTUCKY...

CITY           SKY/WX    TMP DP  RH WIND       PRES   REMARKS
JACKSON        PTCLDY    56  37  49 S3        30.08F
LONDON         PTCLDY    48  40  73 CALM      30.08F
SOMERSET*      CLOUDY    52  41  66 S3        30.08S
MONTICELLO*    CLOUDY    57  46  66 E8        30.08
WILLIAMSBURG*  MOSUNNY   54  43  66 SE8       30.08S
MIDDLESBORO*   CLOUDY    42  41  97 CALM      30.12S
HARLAN APT*    PTSUNNY   54  36  50 CALM      30.12R
PIKE CO APT*     N/A     56  35  44 S6        30.09S
BIG SANDY APT* CLOUDY    55  36  49 CALM      30.09S
MOREHEAD APT*  MOSUNNY   54  37  54 SE3       30.07F
ASHLAND*       PTCLDY    41  39  93 CALM      30.06R
$$

KYZ035-036-041-042-044-050-067-078-099-211000
...CENTRAL KENTUCKY...

CITY           SKY/WX    TMP DP  RH WIND       PRES   REMARKS
MT STERLING*   CLOUDY    55  41  58 SW8       30.06F
FLEMING/MASON* CLOUDY    51  40  66 S5        30.05S
DANVILLE*      CLOUDY    54  43  66 SW5       30.06S
LEXINGTON      CLOUDY    56  40  55 S6        30.04S
FRANKFORT      CLOUDY    54  40  59 SE6       30.01F
LOUISVILLE     CLOUDY    56  41  57 SE6       29.99F
LEBANON*         N/A     59  45  58 S12       30.03S
GLASGOW*       PTCLDY    60  45  57 SE7       30.01S
BOWLING GREEN  MOCLDY    51  43  74 NE3       29.99F
$$

KYZ091>093-OHZ055-061-077-WVZ005-015-034-035-042-211000
...SOUTHERN OHIO/WEST VIRGINIA...

CITY           SKY/WX    TMP DP  RH WIND       PRES   REMARKS
COVINGTON      CLOUDY    50  40  68 SE6       30.02S
COLUMBUS       CLOUDY    47  37  68 E5        30.03F
DAYTON         CLOUDY    50  40  68 S9        30.02F
WILMINGTON     PTCLDY    49  40  71 SE5       30.03F
HUNTINGTON     MOCLDY    45  39  79 CALM      30.07S
CHARLESTON     MOCLDY    48  39  71 N3        30.08F
PINEVILLE*     MOCLDY    43  36  75 MISG      30.18S
BECKLEY        CLOUDY    54  35  48 SE10G20   30.15F
BLUEFIELD      CLOUDY    53  35  50 SE9G21    30.18S
LOGAN CO APT*    N/A     59  32  36 CALM      30.10S
$$

VAZ002-007-008-TNZ017-027-036-066-071-211000
...SOUTHWEST VIRGINIA/EAST TENNESSEE...

CITY           SKY/WX    TMP DP  RH WIND       PRES   REMARKS
WISE*          MOCLDY    54  30  40 CALM      30.15F
JONESVILLE*      N/A     43  39  87 CALM      30.14F
ABINGDON*      MOCLDY    54  37  51 E9        30.16R
BRISTOL        MOCLDY    42  36  79 CALM      30.14S
MORRISTOWN*    SUNNY     48  43  81 CALM      30.10F
SEVIERVILLE*   SUNNY     43  39  87 CALM      30.10F
KNOXVILLE      CLOUDY    49  43  80 NE6       30.09F
LAFOLLETTE*    SUNNY     43  43 100 CALM      30.13S
CROSSVILLE     CLOUDY    54  43  66 S3        30.10R
NASHVILLE      CLOUDY    58  45  62 SE8       29.99F
$$

...KEY TO REMARKS...
VSB - VISIBILITY IN MILES
WCI - WIND CHILL INDEX
HX  - HEAT INDEX

$$



USA.gov is the U.S. government's official web portal to all federal, state and local government web resources and services.